GW5387 Weather Reports


time (UTC)temp
C
wind
direction
speed
KPH
gust
KPH
rain 1hr
cm
rain 24hr
cm
rain mn
cm
humidity
%
barometer
mb
20260901103823 13 265 1.6 3.2 0.00 0.00 0.00 83 1025.0
20260901103322 13 228 1.6 3.2 0.00 0.00 0.00 83 1025.0
20260901102823 13 42 0.0 3.2 0.00 0.00 0.00 83 1025.0
20260901102322 13 30 1.6 4.8 0.00 0.00 0.00 82 1025.0
20260901101822 13 18 0.0 1.6 0.00 0.00 0.00 83 1024.0
20260901101322 13 346 0.0 1.6 0.00 0.00 0.00 82 1024.0
20260901100826 13 334 0.0 3.2 0.00 0.00 0.00 82 1024.0
20260901100322 13 360 0.0 0.0 0.00 0.00 0.00 80 1024.0
20260901095823 13 231 0.0 1.6 0.00 0.00 0.00 80 1024.0
20260901095323 13 286 0.0 0.0 0.00 0.00 0.00 81 1024.0
20260901094822 13 276 1.6 3.2 0.00 0.00 0.00 81 1025.0
20260901094323 13 239 1.6 3.2 0.00 0.00 0.00 81 1025.0
20260901093822 13 280 1.6 3.2 0.00 0.00 0.00 80 1025.0
20260901093322 13 59 0.0 1.6 0.00 0.00 0.00 80 1025.0
20260901092822 13 355 0.0 3.2 0.00 0.00 0.00 81 1025.0
20260901092323 13 38 1.6 3.2 0.00 0.00 0.00 80 1025.0
20260901091823 13 355 3.2 4.8 0.00 0.00 0.00 80 1025.0
20260901091322 13 44 3.2 4.8 0.00 0.00 0.00 79 1025.0
20260901090822 13 341 0.0 1.6 0.00 0.00 0.00 79 1025.0
20260901090322 13 30 0.0 0.0 0.00 0.00 0.00 79 1025.0
20260901085822 13 360 0.0 0.0 0.00 0.00 0.00 79 1025.0
20260901085323 13 360 0.0 0.0 0.00 0.00 0.00 78 1025.0
20260901084822 13 360 0.0 0.0 0.00 0.00 0.00 78 1025.0
20260901084322 13 360 0.0 0.0 0.00 0.00 0.00 78 1025.0
20260901083823 13 182 1.6 3.2 0.00 0.00 0.00 78 1025.0
20260901083323 13 145 4.8 6.4 0.00 0.00 0.00 78 1025.0
20260901082823 13 110 0.0 3.2 0.00 0.00 0.00 79 1025.0
20260901082322 13 89 1.6 4.8 0.00 0.00 0.00 79 1025.0
20260901081822 13 154 3.2 4.8 0.00 0.00 0.00 80 1025.0
20260901081323 13 360 0.0 0.0 0.00 0.00 0.00 80 1025.0
20260901080822 13 59 0.0 1.6 0.00 0.00 0.00 81 1025.0
20260901080323 13 288 0.0 0.0 0.00 0.00 0.00 81 1025.0
20260901075823 13 267 1.6 3.2 0.00 0.00 0.00 81 1025.0
20260901075323 13 360 0.0 0.0 0.00 0.00 0.00 81 1026.0
20260901074823 13 306 0.0 1.6 0.00 0.00 0.00 80 1026.0
20260901074322 13 208 1.6 3.2 0.00 0.00 0.00 79 1025.0
20260901073822 13 223 0.0 0.0 0.00 0.00 0.00 77 1025.0
20260901073322 13 18 0.0 1.6 0.00 0.00 0.00 77 1025.0
20260901072822 13 334 3.2 4.8 0.00 0.00 0.00 77 1025.0
20260901072324 13 304 4.8 6.4 0.00 0.00 0.00 78 1025.0
20260901071822 13 316 1.6 3.2 0.00 0.00 0.00 79 1025.0
20260901071322 13 352 1.6 3.2 0.00 0.00 0.00 78 1025.0
20260901070822 13 342 4.8 6.4 0.00 0.00 0.00 77 1025.0
20260901070325 13 346 3.2 4.8 0.00 0.00 0.00 77 1025.0
20260901065822 13 333 3.2 4.8 0.00 0.00 0.00 79 1025.0
20260901065323 13 306 3.2 4.8 0.00 0.00 0.00 77 1025.0
20260901064822 13 307 3.2 4.8 0.00 0.00 0.00 76 1025.0
20260901064322 13 329 1.6 3.2 0.00 0.00 0.00 77 1025.0
20260901063822 13 343 1.6 4.8 0.00 0.00 0.00 76 1025.0
20260901063322 13 3 1.6 3.2 0.00 0.00 0.00 77 1025.0
20260901062822 13 288 1.6 3.2 0.00 0.00 0.00 77 1025.0
20260901062323 13 297 0.0 1.6 0.00 0.00 0.00 78 1025.0
20260901061823 13 301 3.2 4.8 0.00 0.00 0.00 78 1025.0
20260901061322 13 293 4.8 4.8 0.00 0.00 0.00 76 1025.0
20260901060822 13 306 4.8 6.4 0.00 0.00 0.00 75 1025.0
20260901060322 14 301 3.2 4.8 0.00 0.00 0.00 74 1025.0
20260901055822 14 305 1.6 3.2 0.00 0.00 0.03 75 1025.0
20260901055323 14 309 1.6 3.2 0.00 0.00 0.03 74 1025.0
20260901054822 14 339 1.6 3.2 0.00 0.00 0.03 74 1025.0
20260901054323 14 319 1.6 3.2 0.00 0.00 0.03 74 1025.0
20260901053826 15 353 0.0 3.2 0.00 0.00 0.03 73 1025.0
20260901053322 15 47 0.0 1.6 0.00 0.00 0.03 73 1025.0
20260901052822 15 334 0.0 3.2 0.00 0.00 0.03 73 1025.0
20260901052322 15 310 1.6 3.2 0.00 0.00 0.03 73 1025.0
20260901051822 15 1 0.0 3.2 0.00 0.00 0.03 74 1025.0
20260901051325 15 310 0.0 1.6 0.00 0.00 0.03 74 1025.0
20260901050822 15 287 1.6 3.2 0.00 0.00 0.03 74 1025.0
20260901050322 15 301 0.0 1.6 0.00 0.00 0.03 73 1025.0
20260901045822 15 187 0.0 0.0 0.00 0.00 0.03 72 1025.0
20260901045322 15 204 1.6 3.2 0.00 0.00 0.03 72 1025.0
20260901044822 15 216 1.6 3.2 0.00 0.00 0.03 72 1026.0
20260901044323 15 217 3.2 3.2 0.00 0.00 0.03 72 1026.0
20260901043822 15 206 3.2 4.8 0.00 0.00 0.03 70 1026.0
20260901043322 15 192 1.6 3.2 0.00 0.00 0.03 70 1026.0
20260901042822 15 165 3.2 3.2 0.00 0.00 0.03 70 1026.0
20260901042323 16 188 3.2 4.8 0.00 0.00 0.03 69 1026.0
20260901041822 16 228 3.2 4.8 0.00 0.00 0.03 69 1026.0
20260901041322 16 176 3.2 3.2 0.00 0.00 0.03 67 1026.0
20260901040823 16 179 3.2 6.4 0.00 0.00 0.03 66 1026.0
20260901040322 16 170 3.2 6.4 0.00 0.00 0.03 65 1026.0
20260901035822 16 118 1.6 3.2 0.00 0.00 0.03 65 1025.0
20260901035323 16 360 0.0 0.0 0.00 0.00 0.03 64 1026.0
20260901034822 16 46 0.0 1.6 0.00 0.00 0.03 64 1025.0
20260901034322 16 207 1.6 1.6 0.00 0.00 0.03 64 1025.0
20260901033822 16 230 3.2 6.4 0.00 0.00 0.03 63 1026.0
20260901033322 17 228 3.2 6.4 0.00 0.00 0.03 63 1026.0
20260901032823 17 229 4.8 6.4 0.00 0.00 0.03 62 1026.0
20260901032322 17 171 3.2 4.8 0.00 0.00 0.03 62 1026.0
20260901031823 17 218 4.8 9.7 0.00 0.00 0.03 63 1026.0
20260901031323 17 255 4.8 6.4 0.00 0.00 0.03 63 1025.0
20260901030822 17 288 12.9 17.7 0.00 0.00 0.03 63 1025.0
20260901030323 17 307 4.8 8.0 0.00 0.00 0.03 62 1025.0
20260901025822 17 315 3.2 4.8 0.00 0.00 0.03 61 1025.0
20260901025323 17 279 8.0 12.9 0.00 0.00 0.03 64 1025.0
20260901024823 17 242 9.7 22.5 0.00 0.00 0.03 64 1025.0
20260901024322 17 279 9.7 14.5 0.00 0.00 0.03 65 1025.0
20260901023822 16 307 6.4 12.9 0.00 0.00 0.03 66 1025.0
20260901023323 16 301 8.0 14.5 0.00 0.00 0.03 66 1025.0
20260901022823 16 303 6.4 9.7 0.00 0.00 0.03 69 1025.0
20260901022322 16 271 8.0 12.9 0.00 0.00 0.03 70 1025.0
20260901021823 17 298 12.9 16.1 0.00 0.00 0.03 69 1025.0
20260901021322 17 292 9.7 14.5 0.13 0.00 0.03 67 1025.0
20260901020822 17 300 14.5 20.9 0.00 0.00 0.00 66 1025.0
20260901020322 17 284 17.7 20.9 0.00 0.00 0.00 67 1025.0
20260901015823 17 292 19.3 27.4 0.00 0.00 0.00 67 1025.0
20260901015322 17 293 17.7 25.7 0.00 0.00 0.00 69 1025.0
20260901014823 18 291 22.5 32.2 0.00 0.00 0.00 67 1025.0
20260901014322 20 278 17.7 24.1 0.05 0.00 0.00 65 1025.0
20260901013823 22 259 12.9 19.3 0.00 0.00 0.00 43 1025.0
20260901013322 22 206 8.0 11.3 0.00 0.00 0.00 43 1024.0
20260901012824 22 185 6.4 9.7 0.00 0.00 0.00 43 1024.0
20260901012322 22 182 6.4 8.0 0.00 0.00 0.00 42 1024.0
20260901011822 22 170 8.0 11.3 0.00 0.00 0.00 42 1024.0
20260901011322 22 155 11.3 14.5 0.00 0.00 0.00 42 1024.0
20260901010830 22 160 9.7 14.5 0.00 0.00 0.00 42 1024.0
20260901010323 22 158 12.9 14.5 0.00 0.00 0.00 41 1023.0
20260901005822 22 151 12.9 14.5 0.00 0.00 0.00 42 1023.0
20260901005325 22 141 11.3 14.5 0.00 0.00 0.00 42 1023.0
20260901004823 23 156 11.3 14.5 0.00 0.00 0.00 41 1023.0
20260901004322 23 152 12.9 14.5 0.00 0.00 0.00 40 1023.0
20260901003822 23 142 11.3 14.5 0.00 0.00 0.00 41 1023.0
20260901003322 23 141 11.3 16.1 0.00 0.00 0.00 40 1023.0
20260901002824 24 166 9.7 14.5 0.00 0.00 0.00 36 1023.0
20260901002322 24 171 11.3 14.5 0.00 0.00 0.00 36 1023.0
20260901001823 24 179 9.7 14.5 0.00 0.00 0.00 36 1023.0
20260901001323 24 170 11.3 14.5 0.00 0.00 0.00 36 1023.0
20260901000823 24 169 12.9 14.5 0.00 0.00 0.00 35 1023.0
20260901000322 24 179 9.7 14.5 0.00 0.00 0.00 37 1024.0
20260831235822 24 169 9.7 14.5 0.00 0.00 0.00 36 1024.0
20260831235322 24 162 11.3 14.5 0.00 0.00 0.00 36 1024.0
20260831234822 25 162 12.9 19.3 0.00 0.00 0.00 36 1024.0
20260831234324 25 149 16.1 17.7 0.00 0.00 0.00 36 1024.0
20260831233822 25 174 12.9 16.1 0.00 0.00 0.00 35 1024.0
20260831233323 25 187 9.7 14.5 0.00 0.00 0.00 35 1024.0
20260831232823 25 192 9.7 11.3 0.00 0.00 0.00 35 1024.0
20260831232322 25 182 9.7 12.9 0.00 0.00 0.00 35 1024.0
20260831231822 25 166 12.9 16.1 0.00 0.00 0.00 35 1024.0
20260831231323 25 157 12.9 14.5 0.00 0.00 0.00 34 1024.0
20260831230823 25 167 12.9 19.3 0.00 0.00 0.00 34 1024.0
20260831230322 25 167 11.3 14.5 0.00 0.00 0.00 34 1024.0
20260831225822 25 164 9.7 14.5 0.00 0.00 0.00 34 1024.0
20260831225322 25 153 11.3 14.5 0.00 0.00 0.00 34 1024.0
20260831224827 25 200 6.4 11.3 0.00 0.00 0.00 34 1024.0
20260831224322 25 211 4.8 8.0 0.00 0.00 0.00 36 1024.0
20260831223822 25 218 3.2 6.4 0.00 0.00 0.00 36 1024.0
20260831223327 25 155 3.2 6.4 0.00 0.00 0.00 35 1024.0
20260831222822 25 195 4.8 6.4 0.00 0.00 0.00 35 1024.0
20260831222322 25 183 6.4 9.7 0.00 0.00 0.00 35 1024.0
20260831221822 25 188 4.8 6.4 0.00 0.00 0.00 37 1024.0
20260831221322 25 206 6.4 11.3 0.00 0.00 0.00 34 1024.0
20260831220822 25 157 8.0 9.7 0.00 0.00 0.00 35 1024.0
20260831220323 25 149 4.8 8.0 0.00 0.00 0.00 35 1024.0
20260831215823 25 142 0.0 3.2 0.00 0.00 0.00 32 1024.0
20260831215324 26 147 8.0 11.3 0.00 0.00 0.00 32 1024.0
20260831214823 26 221 3.2 4.8 0.00 0.00 0.00 32 1024.0
20260831214322 26 112 3.2 4.8 0.00 0.00 0.00 31 1024.0
20260831213822 26 166 1.6 3.2 0.00 0.00 0.00 33 1024.0
20260831213322 26 224 3.2 6.4 0.00 0.00 0.00 31 1024.0
20260831212822 26 137 3.2 8.0 0.00 0.00 0.00 33 1025.0
20260831212323 26 85 3.2 6.4 0.00 0.00 0.00 32 1025.0
20260831211824 26 123 3.2 4.8 0.00 0.00 0.00 32 1025.0
20260831211322 25 121 0.0 3.2 0.00 0.00 0.00 34 1025.0
20260831210822 25 132 6.4 9.7 0.00 0.00 0.00 36 1025.0
20260831210323 25 141 4.8 8.0 0.00 0.00 0.00 34 1025.0
20260831205822 25 132 4.8 9.7 0.00 0.00 0.00 36 1025.0
20260831205322 25 2 3.2 6.4 0.00 0.00 0.00 34 1025.0
20260831204823 25 139 4.8 6.4 0.00 0.00 0.00 35 1025.0
20260831204324 25 134 6.4 11.3 0.00 0.00 0.00 36 1025.0
20260831203823 24 126 3.2 8.0 0.00 0.00 0.00 36 1025.0
20260831203322 25 66 3.2 6.4 0.00 0.00 0.00 36 1025.0
20260831202822 25 111 6.4 9.7 0.00 0.00 0.00 35 1025.0
20260831202323 24 129 8.0 12.9 0.00 0.00 0.00 36 1025.0
20260831201823 24 97 3.2 4.8 0.00 0.00 0.00 37 1025.0
20260831201323 24 99 6.4 12.9 0.00 0.00 0.00 37 1025.0
20260831200822 24 90 3.2 4.8 0.00 0.00 0.00 35 1025.0
20260831200322 25 59 1.6 4.8 0.00 0.00 0.00 36 1025.0
20260831195823 25 60 0.0 3.2 0.00 0.00 0.00 35 1025.0
20260831195323 25 56 1.6 3.2 0.00 0.00 0.00 35 1025.0
20260831194822 25 73 1.6 4.8 0.00 0.00 0.00 35 1026.0
20260831194322 25 159 1.6 3.2 0.00 0.00 0.00 35 1026.0
20260831193823 25 315 0.0 1.6 0.00 0.00 0.00 34 1025.0
20260831193323 25 348 1.6 3.2 0.00 0.00 0.00 35 1025.0
20260831192823 25 317 1.6 4.8 0.00 0.00 0.00 36 1026.0
20260831192323 25 329 1.6 3.2 0.00 0.00 0.00 35 1026.0
20260831191823 24 136 1.6 4.8 0.00 0.00 0.00 35 1026.0
20260831191324 24 170 0.0 3.2 0.00 0.00 0.00 34 1026.0
20260831190822 24 293 1.6 3.2 0.00 0.00 0.00 33 1026.0
20260831190322 24 218 3.2 3.2 0.00 0.00 0.00 34 1026.0
20260831185822 24 142 3.2 4.8 0.00 0.00 0.00 35 1026.0
20260831185322 23 151 4.8 6.4 0.00 0.00 0.00 36 1026.0
20260831184822 23 172 4.8 9.7 0.00 0.00 0.00 36 1026.0
20260831184322 23 160 9.7 12.9 0.00 0.00 0.00 36 1026.0
20260831183822 24 174 11.3 14.5 0.00 0.00 0.00 36 1026.0
20260831183325 24 138 6.4 11.3 0.00 0.00 0.00 36 1026.0
20260831182822 25 110 1.6 4.8 0.00 0.00 0.00 35 1026.0
20260831182322 25 109 1.6 4.8 0.00 0.00 0.00 34 1026.0
20260831181822 25 53 3.2 4.8 0.00 0.00 0.00 35 1026.0
20260831181322 24 302 0.0 1.6 0.00 0.00 0.00 35 1026.0
20260831180823 25 315 3.2 4.8 0.00 0.00 0.00 34 1026.0
20260831180323 25 28 3.2 4.8 0.00 0.00 0.00 36 1026.0
20260831175822 25 360 0.0 4.8 0.00 0.00 0.00 35 1026.0
20260831175323 25 2 3.2 6.4 0.00 0.00 0.00 35 1026.0
20260831174822 24 220 1.6 3.2 0.00 0.00 0.00 36 1026.0
20260831174323 24 258 3.2 6.4 0.00 0.00 0.00 35 1026.0
20260831173822 24 250 4.8 8.0 0.00 0.00 0.00 35 1026.0
20260831173323 24 316 6.4 14.5 0.00 0.00 0.00 37 1026.0
20260831172822 24 282 4.8 6.4 0.00 0.00 0.00 33 1026.0
20260831172322 24 288 3.2 4.8 0.00 0.00 0.00 36 1026.0
20260831171825 24 228 3.2 8.0 0.00 0.00 0.00 33 1026.0
20260831171322 24 307 4.8 6.4 0.00 0.00 0.00 34 1026.0
20260831170822 24 284 4.8 6.4 0.00 0.00 0.00 38 1026.0
20260831170323 23 342 1.6 3.2 0.00 0.00 0.00 37 1026.0
20260831165822 23 264 3.2 4.8 0.00 0.00 0.00 41 1026.0
20260831165323 23 162 1.6 3.2 0.00 0.00 0.00 42 1026.0
20260831164823 22 117 4.8 6.4 0.00 0.00 0.00 41 1026.0
20260831164323 22 129 3.2 8.0 0.00 0.00 0.00 43 1026.0
20260831163822 22 129 3.2 6.4 0.00 0.00 0.00 43 1026.0
20260831163322 22 123 4.8 6.4 0.00 0.00 0.00 44 1026.0
20260831162823 22 136 4.8 9.7 0.00 0.00 0.00 46 1026.0
20260831162323 21 150 6.4 8.0 0.00 0.00 0.00 46 1026.0
20260831161822 21 190 6.4 8.0 0.00 0.00 0.00 47 1026.0
20260831161323 21 167 6.4 8.0 0.00 0.00 0.00 47 1026.0
20260831160823 21 160 6.4 8.0 0.00 0.00 0.00 48 1026.0
20260831160323 21 145 4.8 8.0 0.00 0.00 0.00 51 1026.0
20260831155824 21 141 4.8 6.4 0.00 0.00 0.00 49 1026.0
20260831155327 21 127 4.8 6.4 0.00 0.00 0.00 48 1026.0
20260831154823 21 274 1.6 3.2 0.00 0.00 0.00 47 1026.0
20260831154323 20 159 3.2 4.8 0.00 0.00 0.00 50 1026.0
20260831153822 20 166 1.6 3.2 0.00 0.00 0.00 52 1026.0
20260831153323 19 70 1.6 3.2 0.00 0.00 0.00 52 1026.0
20260831152822 18 346 0.0 1.6 0.00 0.00 0.00 56 1026.0
20260831152323 18 241 4.8 6.4 0.00 0.00 0.00 60 1026.0
20260831151823 17 210 3.2 4.8 0.00 0.00 0.00 61 1026.0
20260831151323 17 209 3.2 3.2 0.00 0.00 0.00 60 1026.0
20260831150822 17 116 3.2 4.8 0.00 0.00 0.00 61 1026.0
20260831150322 17 76 1.6 3.2 0.00 0.00 0.00 62 1026.0
20260831145822 16 89 3.2 4.8 0.00 0.00 0.00 60 1026.0
20260831145322 16 195 1.6 3.2 0.00 0.00 0.00 63 1026.0
20260831144823 16 167 8.0 9.7 0.00 0.00 0.00 61 1026.0
20260831144323 16 176 4.8 6.4 0.00 0.00 0.00 61 1026.0
20260831143823 16 137 6.4 8.0 0.00 0.00 0.00 60 1026.0
20260831143322 16 156 12.9 14.5 0.00 0.00 0.00 60 1026.0
20260831142822 16 169 6.4 8.0 0.00 0.00 0.00 61 1026.0
20260831142322 16 149 6.4 9.7 0.00 0.00 0.00 62 1026.0
20260831141823 16 170 1.6 4.8 0.00 0.00 0.00 61 1026.0
20260831141322 16 158 3.2 6.4 0.00 0.00 0.00 61 1026.0
20260831140823 17 170 4.8 8.0 0.00 0.00 0.00 60 1026.0
20260831140322 17 188 1.6 3.2 0.00 0.00 0.00 59 1026.0
20260831135822 17 148 3.2 4.8 0.00 0.00 0.00 59 1026.0
20260831135323 16 164 1.6 4.8 0.00 0.00 0.00 61 1026.0
20260831134822 16 105 0.0 1.6 0.00 0.00 0.00 60 1026.0
20260831134323 17 173 3.2 3.2 0.00 0.00 0.00 59 1026.0
20260831133823 17 360 0.0 0.0 0.00 0.00 0.00 57 1026.0
20260831133323 17 34 0.0 1.6 0.00 0.00 0.00 56 1026.0
20260831132822 17 87 1.6 3.2 0.00 0.00 0.00 56 1026.0
20260831132323 17 189 3.2 4.8 0.00 0.00 0.00 53 1026.0
20260831131823 18 188 4.8 6.4 0.00 0.00 0.00 51 1026.0
20260831131322 18 278 3.2 8.0 0.00 0.00 0.00 45 1026.0
20260831130823 17 291 4.8 8.0 0.00 0.00 0.00 47 1025.0
20260831130323 17 313 4.8 8.0 0.00 0.00 0.00 50 1025.0
20260831125824 17 281 1.6 3.2 0.00 0.00 0.00 51 1025.0
20260831125322 17 267 3.2 6.4 0.00 0.00 0.00 52 1025.0
20260831124822 16 291 8.0 9.7 0.00 0.00 0.00 52 1025.0
20260831124323 16 335 3.2 4.8 0.00 0.00 0.00 51 1025.0
20260831123822 16 4 4.8 6.4 0.00 0.00 0.00 53 1025.0
20260831123322 16 12 4.8 9.7 0.00 0.00 0.00 54 1025.0
20260831122822 16 37 1.6 3.2 0.00 0.00 0.00 57 1025.0
20260831122324 16 23 3.2 6.4 0.00 0.00 0.00 57 1025.0
20260831121822 16 287 8.0 11.3 0.00 0.00 0.00 54 1025.0
20260831121322 16 281 6.4 9.7 0.00 0.00 0.00 58 1025.0
20260831120824 16 277 11.3 14.5 0.00 0.00 0.00 56 1025.0
20260831120322 16 227 4.8 9.7 0.00 0.00 0.00 54 1025.0
20260831115822 16 314 4.8 8.0 0.00 0.00 0.00 57 1025.0
20260831115323 16 280 3.2 6.4 0.00 0.00 0.00 56 1025.0
20260831114823 16 261 3.2 6.4 0.00 0.00 0.00 54 1025.0
20260831114322 16 168 4.8 6.4 0.00 0.00 0.00 56 1025.0
20260831113822 16 294 3.2 4.8 0.00 0.00 0.00 53 1025.0
20260831113324 16 225 1.6 4.8 0.00 0.00 0.00 54 1025.0
20260831112823 17 263 3.2 6.4 0.00 0.00 0.00 53 1025.0
20260831112322 17 318 1.6 4.8 0.00 0.00 0.00 51 1025.0
20260831111823 17 21 1.6 3.2 0.00 0.00 0.00 51 1025.0
20260831111322 17 319 3.2 4.8 0.00 0.00 0.00 50 1025.0
20260831110822 17 10 1.6 4.8 0.00 0.00 0.00 49 1025.0
20260831110325 17 15 4.8 8.0 0.00 0.00 0.00 50 1025.0
20260831105823 17 338 3.2 4.8 0.00 0.00 0.00 49 1025.0
20260831105322 18 5 1.6 3.2 0.00 0.00 0.00 48 1025.0
20260831104823 18 357 3.2 4.8 0.00 0.00 0.00 48 1025.0
20260831104322 18 53 3.2 6.4 0.00 0.00 0.00 48 1025.0